Year,Month,Day,Hour,Minute,Value (Times are PST for temperature in C)
2016,06,16,00,00,7.80
2016,06,16,00,01,7.80
2016,06,16,00,02,7.80
2016,06,16,00,03,7.80
2016,06,16,00,04,7.70
2016,06,16,00,05,7.70
2016,06,16,00,06,7.70
2016,06,16,00,07,7.70
2016,06,16,00,08,7.60
2016,06,16,00,09,7.60
2016,06,16,00,10,7.60
2016,06,16,00,11,7.50
2016,06,16,00,12,7.50
2016,06,16,00,13,7.40
2016,06,16,00,14,7.40
2016,06,16,00,15,7.40
2016,06,16,00,16,7.30
2016,06,16,00,17,7.30
2016,06,16,00,18,7.30
2016,06,16,00,19,7.30
2016,06,16,00,20,7.30
2016,06,16,00,21,7.30
2016,06,16,00,22,7.40
2016,06,16,00,23,7.40
2016,06,16,00,24,7.40
2016,06,16,00,25,7.40
2016,06,16,00,26,7.40
2016,06,16,00,27,7.40
2016,06,16,00,28,7.50
2016,06,16,00,29,7.60
2016,06,16,00,30,7.60
2016,06,16,00,31,7.60
2016,06,16,00,32,7.60
2016,06,16,00,33,7.60
2016,06,16,00,34,7.60
2016,06,16,00,35,7.60
2016,06,16,00,36,7.60
2016,06,16,00,37,7.60
2016,06,16,00,38,7.50
2016,06,16,00,39,7.50
2016,06,16,00,40,7.50
2016,06,16,00,41,7.40
2016,06,16,00,42,7.40
2016,06,16,00,43,7.50
2016,06,16,00,44,7.50
2016,06,16,00,45,7.40
2016,06,16,00,46,7.40
2016,06,16,00,47,7.40
2016,06,16,00,48,7.40
2016,06,16,00,49,7.30
2016,06,16,00,50,7.30
2016,06,16,00,51,7.30
2016,06,16,00,52,7.30
2016,06,16,00,53,7.30
2016,06,16,00,54,7.20
2016,06,16,00,55,7.30
2016,06,16,00,56,7.30
2016,06,16,00,57,7.20
2016,06,16,00,58,7.20
2016,06,16,00,59,7.30
2016,06,16,01,00,7.30
2016,06,16,01,01,7.20
2016,06,16,01,02,7.20
2016,06,16,01,03,7.20
2016,06,16,01,04,7.10
2016,06,16,01,05,7.10
2016,06,16,01,06,7.10
2016,06,16,01,07,7.00
2016,06,16,01,08,7.00
2016,06,16,01,09,7.00
2016,06,16,01,10,7.00
2016,06,16,01,11,7.10
2016,06,16,01,12,7.10
2016,06,16,01,13,7.10
2016,06,16,01,14,7.10
2016,06,16,01,15,7.10
2016,06,16,01,16,7.10
2016,06,16,01,17,7.10
2016,06,16,01,18,7.10
2016,06,16,01,19,7.10
2016,06,16,01,20,7.10
2016,06,16,01,21,7.10
2016,06,16,01,22,7.10
2016,06,16,01,23,7.10
2016,06,16,01,24,7.10
2016,06,16,01,25,7.20
2016,06,16,01,26,7.20
2016,06,16,01,27,7.20
2016,06,16,01,28,7.20
2016,06,16,01,29,7.20
2016,06,16,01,30,7.10
2016,06,16,01,31,7.10
2016,06,16,01,32,7.00
2016,06,16,01,33,7.00
2016,06,16,01,34,7.00
2016,06,16,01,35,6.90
2016,06,16,01,36,6.90
2016,06,16,01,37,6.90
2016,06,16,01,38,6.90
2016,06,16,01,39,6.90
2016,06,16,01,40,6.90
2016,06,16,01,41,6.90
2016,06,16,01,42,6.90
2016,06,16,01,43,6.90
2016,06,16,01,44,6.90
2016,06,16,01,45,6.90
2016,06,16,01,46,6.90
2016,06,16,01,47,6.90
2016,06,16,01,48,6.80
2016,06,16,01,49,6.80
2016,06,16,01,50,6.80
2016,06,16,01,51,6.80
2016,06,16,01,52,6.80
2016,06,16,01,53,6.80
2016,06,16,01,54,6.80
2016,06,16,01,55,6.80
2016,06,16,01,56,6.80
2016,06,16,01,57,6.80
2016,06,16,01,58,6.80
2016,06,16,01,59,6.80
2016,06,16,02,00,6.80
2016,06,16,02,01,6.80
2016,06,16,02,02,6.70
2016,06,16,02,03,6.70
2016,06,16,02,04,6.70
2016,06,16,02,05,6.70
2016,06,16,02,06,6.70
2016,06,16,02,07,6.70
2016,06,16,02,08,6.60
2016,06,16,02,09,6.60
2016,06,16,02,10,6.60
2016,06,16,02,11,6.60
2016,06,16,02,12,6.60
2016,06,16,02,13,6.60
2016,06,16,02,14,6.60
2016,06,16,02,15,6.60
2016,06,16,02,16,6.60
2016,06,16,02,17,6.60
2016,06,16,02,18,6.60
2016,06,16,02,19,6.60
2016,06,16,02,20,6.60
2016,06,16,02,21,6.50
2016,06,16,02,22,6.50
2016,06,16,02,23,6.50
2016,06,16,02,24,6.50
2016,06,16,02,25,6.50
2016,06,16,02,26,6.50
2016,06,16,02,27,6.40
2016,06,16,02,28,6.40
2016,06,16,02,29,6.40
2016,06,16,02,30,6.40
2016,06,16,02,31,6.50
2016,06,16,02,32,6.40
2016,06,16,02,33,6.40
2016,06,16,02,34,6.40
2016,06,16,02,35,6.50
2016,06,16,02,36,6.50
2016,06,16,02,37,6.50
2016,06,16,02,38,6.50
2016,06,16,02,39,6.50
2016,06,16,02,40,6.40
2016,06,16,02,41,6.40
2016,06,16,02,42,6.40
2016,06,16,02,43,6.40
2016,06,16,02,44,6.40
2016,06,16,02,45,6.30
2016,06,16,02,46,6.30
2016,06,16,02,47,6.30
2016,06,16,02,48,6.30
2016,06,16,02,49,6.30
2016,06,16,02,50,6.30
2016,06,16,02,51,6.40
2016,06,16,02,52,6.30
2016,06,16,02,53,6.40
2016,06,16,02,54,6.30
2016,06,16,02,55,6.30
2016,06,16,02,56,6.30
2016,06,16,02,57,6.30
2016,06,16,02,58,6.30
2016,06,16,02,59,6.30
2016,06,16,03,00,6.20
2016,06,16,03,01,6.20
2016,06,16,03,02,6.20
2016,06,16,03,03,6.20
2016,06,16,03,04,6.20
2016,06,16,03,05,6.20
2016,06,16,03,06,6.20
2016,06,16,03,07,6.30
2016,06,16,03,08,6.30
2016,06,16,03,09,6.30
2016,06,16,03,10,6.30
2016,06,16,03,11,6.30
2016,06,16,03,12,6.20
2016,06,16,03,13,6.20
2016,06,16,03,14,6.20
2016,06,16,03,15,6.20
2016,06,16,03,16,6.20
2016,06,16,03,17,6.20
2016,06,16,03,18,6.20
2016,06,16,03,19,6.20
2016,06,16,03,20,6.10
2016,06,16,03,21,6.10
2016,06,16,03,22,6.10
2016,06,16,03,23,6.20
2016,06,16,03,24,6.20
2016,06,16,03,25,6.20
2016,06,16,03,26,6.20
2016,06,16,03,27,6.20
2016,06,16,03,28,6.20
2016,06,16,03,29,6.20
2016,06,16,03,30,6.20
2016,06,16,03,31,6.20
2016,06,16,03,32,6.20
2016,06,16,03,33,6.20
2016,06,16,03,34,6.20
2016,06,16,03,35,6.10
2016,06,16,03,36,6.10
2016,06,16,03,37,6.10
2016,06,16,03,38,6.10
2016,06,16,03,39,6.10
2016,06,16,03,40,6.10
2016,06,16,03,41,6.10
2016,06,16,03,42,6.10
2016,06,16,03,43,6.00
2016,06,16,03,44,6.00
2016,06,16,03,45,5.90
2016,06,16,03,46,5.90
2016,06,16,03,47,5.90
2016,06,16,03,48,5.90
2016,06,16,03,49,5.90
2016,06,16,03,50,5.90
2016,06,16,03,51,5.90
2016,06,16,03,52,6.00
2016,06,16,03,53,6.00
2016,06,16,03,54,6.00
2016,06,16,03,55,6.00
2016,06,16,03,56,6.00
2016,06,16,03,57,6.00
2016,06,16,03,58,6.00
2016,06,16,03,59,6.00
2016,06,16,04,00,5.90
2016,06,16,04,01,5.90
2016,06,16,04,02,6.00
2016,06,16,04,03,6.00
2016,06,16,04,04,5.90
2016,06,16,04,05,5.90
2016,06,16,04,06,5.90
2016,06,16,04,07,5.90
2016,06,16,04,08,5.90
2016,06,16,04,09,6.00
2016,06,16,04,10,6.00
2016,06,16,04,11,6.00
2016,06,16,04,12,6.00
2016,06,16,04,13,6.10
2016,06,16,04,14,6.10
2016,06,16,04,15,6.10
2016,06,16,04,16,6.10
2016,06,16,04,17,6.10
2016,06,16,04,18,6.10
2016,06,16,04,19,6.10
2016,06,16,04,20,6.10
2016,06,16,04,21,6.10
2016,06,16,04,22,6.10
2016,06,16,04,23,6.00
2016,06,16,04,24,6.00
2016,06,16,04,25,6.00
2016,06,16,04,26,6.00
2016,06,16,04,27,6.00
2016,06,16,04,28,5.90
2016,06,16,04,29,5.90
2016,06,16,04,30,5.90
2016,06,16,04,31,5.90
2016,06,16,04,32,5.90
2016,06,16,04,33,5.90
2016,06,16,04,34,5.90
2016,06,16,04,35,5.90
2016,06,16,04,36,6.00
2016,06,16,04,37,6.00
2016,06,16,04,38,6.00
2016,06,16,04,39,6.00
2016,06,16,04,40,6.00
2016,06,16,04,41,5.90
2016,06,16,04,42,5.90
2016,06,16,04,43,5.90
2016,06,16,04,44,5.90
2016,06,16,04,45,5.90
2016,06,16,04,46,5.90
2016,06,16,04,47,5.80
2016,06,16,04,48,5.80
2016,06,16,04,49,5.80
2016,06,16,04,50,5.80
2016,06,16,04,51,5.80
2016,06,16,04,52,5.90
2016,06,16,04,53,6.00
2016,06,16,04,54,6.00
2016,06,16,04,55,6.00
2016,06,16,04,56,6.00
2016,06,16,04,57,6.00
2016,06,16,04,58,6.00
2016,06,16,04,59,6.00
2016,06,16,05,00,6.10
2016,06,16,05,01,6.10
2016,06,16,05,02,6.10
2016,06,16,05,03,6.10
2016,06,16,05,04,6.10
2016,06,16,05,05,6.10
2016,06,16,05,06,6.00
2016,06,16,05,07,6.00
2016,06,16,05,08,6.00
2016,06,16,05,09,6.00
2016,06,16,05,10,5.90
2016,06,16,05,11,6.00
2016,06,16,05,12,6.00
2016,06,16,05,13,6.00
2016,06,16,05,14,6.10
2016,06,16,05,15,6.10
2016,06,16,05,16,6.10
2016,06,16,05,17,6.10
2016,06,16,05,18,6.10
2016,06,16,05,19,6.10
2016,06,16,05,20,6.10
2016,06,16,05,21,6.00
2016,06,16,05,22,6.00
2016,06,16,05,23,6.00
2016,06,16,05,24,6.00
2016,06,16,05,25,6.10
2016,06,16,05,26,6.10
2016,06,16,05,27,6.10
2016,06,16,05,28,6.20
2016,06,16,05,29,6.20
2016,06,16,05,30,6.20
2016,06,16,05,31,6.20
2016,06,16,05,32,6.20
2016,06,16,05,33,6.20
2016,06,16,05,34,6.20
2016,06,16,05,35,6.20
2016,06,16,05,36,6.20
2016,06,16,05,37,6.30
2016,06,16,05,38,6.30
2016,06,16,05,39,6.30
2016,06,16,05,40,6.30
2016,06,16,05,41,6.30
2016,06,16,05,42,6.30
2016,06,16,05,43,6.30
2016,06,16,05,44,6.40
2016,06,16,05,45,6.40
2016,06,16,05,46,6.50
2016,06,16,05,47,6.50
2016,06,16,05,48,6.50
2016,06,16,05,49,6.50
2016,06,16,05,50,6.50
2016,06,16,05,51,6.50
2016,06,16,05,52,6.50
2016,06,16,05,53,6.50
2016,06,16,05,54,6.50
2016,06,16,05,55,6.50
2016,06,16,05,56,6.40
2016,06,16,05,57,6.50
2016,06,16,05,58,6.50
2016,06,16,05,59,6.50
2016,06,16,06,00,6.50
2016,06,16,06,01,6.50
2016,06,16,06,02,6.50
2016,06,16,06,03,6.50
2016,06,16,06,04,6.50
2016,06,16,06,05,6.50
2016,06,16,06,06,6.50
2016,06,16,06,07,6.50
2016,06,16,06,08,6.50
2016,06,16,06,09,6.60
2016,06,16,06,10,6.60
2016,06,16,06,11,6.60
2016,06,16,06,12,6.60
2016,06,16,06,13,6.60
2016,06,16,06,14,6.60
2016,06,16,06,15,6.60
2016,06,16,06,16,6.60
2016,06,16,06,17,6.60
2016,06,16,06,18,6.60
2016,06,16,06,19,6.60
2016,06,16,06,20,6.60
2016,06,16,06,21,6.60
2016,06,16,06,22,6.70
2016,06,16,06,23,6.70
2016,06,16,06,24,6.70
2016,06,16,06,25,6.70
2016,06,16,06,26,6.80
2016,06,16,06,27,6.80
2016,06,16,06,28,6.90
2016,06,16,06,29,6.90
2016,06,16,06,30,6.90
2016,06,16,06,31,7.00
2016,06,16,06,32,7.00
2016,06,16,06,33,7.00
2016,06,16,06,34,7.00
2016,06,16,06,35,7.10
2016,06,16,06,36,7.10
2016,06,16,06,37,7.10
2016,06,16,06,38,7.20
2016,06,16,06,39,7.20
2016,06,16,06,40,7.30
2016,06,16,06,41,7.30
2016,06,16,06,42,7.30
2016,06,16,06,43,7.40
2016,06,16,06,44,7.40
2016,06,16,06,45,7.40
2016,06,16,06,46,7.50
2016,06,16,06,47,7.60
2016,06,16,06,48,7.60
2016,06,16,06,49,7.70
2016,06,16,06,50,7.70
2016,06,16,06,51,7.70
2016,06,16,06,52,7.80
2016,06,16,06,53,7.80
2016,06,16,06,54,7.80
2016,06,16,06,55,7.90
2016,06,16,06,56,7.90
2016,06,16,06,57,7.90
2016,06,16,06,58,8.00
2016,06,16,06,59,8.00
2016,06,16,07,00,8.10
2016,06,16,07,01,8.10
2016,06,16,07,02,8.20
2016,06,16,07,03,8.20
2016,06,16,07,04,8.30
2016,06,16,07,05,8.30
2016,06,16,07,06,8.40
2016,06,16,07,07,8.40
2016,06,16,07,08,8.50
2016,06,16,07,09,8.60
2016,06,16,07,10,8.60
2016,06,16,07,11,8.70
2016,06,16,07,12,8.70
2016,06,16,07,13,8.80
2016,06,16,07,14,8.80
2016,06,16,07,15,8.80
2016,06,16,07,16,8.90
2016,06,16,07,17,9.00
2016,06,16,07,18,9.00
2016,06,16,07,19,9.10
2016,06,16,07,20,9.20
2016,06,16,07,21,9.20
2016,06,16,07,22,9.30
2016,06,16,07,23,9.40
2016,06,16,07,24,9.40
2016,06,16,07,25,9.50
2016,06,16,07,26,9.60
2016,06,16,07,27,9.60
2016,06,16,07,28,9.70
2016,06,16,07,29,9.80
2016,06,16,07,30,9.80
2016,06,16,07,31,9.90
2016,06,16,07,32,9.90
2016,06,16,07,33,10.00
2016,06,16,07,34,10.10
2016,06,16,07,35,10.10
2016,06,16,07,36,10.10
2016,06,16,07,37,10.20
2016,06,16,07,38,10.20
2016,06,16,07,39,10.20
2016,06,16,07,40,10.20
2016,06,16,07,41,10.20
2016,06,16,07,42,10.30
2016,06,16,07,43,10.30
2016,06,16,07,44,10.30
2016,06,16,07,45,10.30
2016,06,16,07,46,10.30
2016,06,16,07,47,10.30
2016,06,16,07,48,10.30
2016,06,16,07,49,10.30
2016,06,16,07,50,10.30
2016,06,16,07,51,10.30
2016,06,16,07,52,10.30
2016,06,16,07,53,10.40
2016,06,16,07,54,10.40
2016,06,16,07,55,10.40
2016,06,16,07,56,10.40
2016,06,16,07,57,10.50
2016,06,16,07,58,10.50
2016,06,16,07,59,10.60
2016,06,16,08,00,10.60
2016,06,16,08,01,10.60
2016,06,16,08,02,10.60
2016,06,16,08,03,10.50
2016,06,16,08,04,10.50
2016,06,16,08,05,10.40
2016,06,16,08,06,10.40
2016,06,16,08,07,10.40
2016,06,16,08,08,10.30
2016,06,16,08,09,10.30
2016,06,16,08,10,10.30
2016,06,16,08,11,10.20
2016,06,16,08,12,10.20
2016,06,16,08,13,10.10
2016,06,16,08,14,10.10
2016,06,16,08,15,10.00
2016,06,16,08,16,10.00
2016,06,16,08,17,9.90
2016,06,16,08,18,9.90
2016,06,16,08,19,9.80
2016,06,16,08,20,9.80
2016,06,16,08,21,9.70
2016,06,16,08,22,9.70
2016,06,16,08,23,9.60
2016,06,16,08,24,9.60
2016,06,16,08,25,9.60
2016,06,16,08,26,9.60
2016,06,16,08,27,9.60
2016,06,16,08,28,9.70
2016,06,16,08,29,9.80
2016,06,16,08,30,9.90
2016,06,16,08,31,10.00
2016,06,16,08,32,10.10
2016,06,16,08,33,10.20
2016,06,16,08,34,10.40
2016,06,16,08,35,10.60
2016,06,16,08,36,10.70
2016,06,16,08,37,10.80
2016,06,16,08,38,11.00
2016,06,16,08,39,11.10
2016,06,16,08,40,11.30
2016,06,16,08,41,11.50
2016,06,16,08,42,11.60
2016,06,16,08,43,11.70
2016,06,16,08,44,11.80
2016,06,16,08,45,12.00
2016,06,16,08,46,12.10
2016,06,16,08,47,12.20
2016,06,16,08,48,12.30
2016,06,16,08,49,12.40
2016,06,16,08,50,12.50
2016,06,16,08,51,12.50
2016,06,16,08,52,12.60
2016,06,16,08,53,12.60
2016,06,16,08,54,12.60
2016,06,16,08,55,12.70
2016,06,16,08,56,12.70
2016,06,16,08,57,12.70
2016,06,16,08,58,12.70
2016,06,16,08,59,12.70
2016,06,16,09,00,12.60
2016,06,16,09,01,12.60
2016,06,16,09,02,12.60
2016,06,16,09,03,12.60
2016,06,16,09,04,12.60
2016,06,16,09,05,12.60
2016,06,16,09,06,12.60
2016,06,16,09,07,12.50
2016,06,16,09,08,12.50
2016,06,16,09,09,12.50
2016,06,16,09,10,12.50
2016,06,16,09,11,12.50
2016,06,16,09,12,12.50
2016,06,16,09,13,12.50
2016,06,16,09,14,12.50
2016,06,16,09,15,12.50
2016,06,16,09,16,12.50
2016,06,16,09,17,12.50
2016,06,16,09,18,12.40
2016,06,16,09,19,12.40
2016,06,16,09,20,12.40
2016,06,16,09,21,12.40
2016,06,16,09,22,12.40
2016,06,16,09,23,12.40
2016,06,16,09,24,12.40
2016,06,16,09,25,12.30
2016,06,16,09,26,12.30
2016,06,16,09,27,12.30
2016,06,16,09,28,12.30
2016,06,16,09,29,12.30
2016,06,16,09,30,12.30
2016,06,16,09,31,12.30
2016,06,16,09,32,12.30
2016,06,16,09,33,12.30
2016,06,16,09,34,12.30
2016,06,16,09,35,12.20
2016,06,16,09,36,12.20
2016,06,16,09,37,12.20
2016,06,16,09,38,12.20
2016,06,16,09,39,12.10
2016,06,16,09,40,12.10
2016,06,16,09,41,12.10
2016,06,16,09,42,12.10
2016,06,16,09,43,12.10
2016,06,16,09,44,12.10
2016,06,16,09,45,12.10
2016,06,16,09,46,12.20
2016,06,16,09,47,12.20
2016,06,16,09,48,12.20
2016,06,16,09,49,12.20
2016,06,16,09,50,12.20
2016,06,16,09,51,12.30
2016,06,16,09,52,12.30
2016,06,16,09,53,12.30
2016,06,16,09,54,12.40
2016,06,16,09,55,12.40
2016,06,16,09,56,12.40
2016,06,16,09,57,12.50
2016,06,16,09,58,12.60
2016,06,16,09,59,12.60
2016,06,16,10,00,12.80
2016,06,16,10,01,12.90
2016,06,16,10,02,13.00
2016,06,16,10,03,13.20
2016,06,16,10,04,13.30
2016,06,16,10,05,13.50
2016,06,16,10,06,13.70
2016,06,16,10,07,13.90
2016,06,16,10,08,14.00
2016,06,16,10,09,14.00
2016,06,16,10,10,14.10
2016,06,16,10,11,14.10
2016,06,16,10,12,14.10
2016,06,16,10,13,14.10
2016,06,16,10,14,14.10
2016,06,16,10,15,14.10
2016,06,16,10,16,14.20
2016,06,16,10,17,14.20
2016,06,16,10,18,14.20
2016,06,16,10,19,14.20
2016,06,16,10,20,14.20
2016,06,16,10,21,14.20
2016,06,16,10,22,14.20
2016,06,16,10,23,14.20
2016,06,16,10,24,14.20
2016,06,16,10,25,14.20
2016,06,16,10,26,14.20
2016,06,16,10,27,14.20
2016,06,16,10,28,14.20
2016,06,16,10,29,14.10
2016,06,16,10,30,14.10
2016,06,16,10,31,14.00
2016,06,16,10,32,14.00
2016,06,16,10,33,13.90
2016,06,16,10,34,13.90
2016,06,16,10,35,13.80
2016,06,16,10,36,13.80
2016,06,16,10,37,13.80
2016,06,16,10,38,13.70
2016,06,16,10,39,13.70
2016,06,16,10,40,13.70
2016,06,16,10,41,13.70
2016,06,16,10,42,13.60
2016,06,16,10,43,13.60
2016,06,16,10,44,13.60
2016,06,16,10,45,13.60
2016,06,16,10,46,13.60
2016,06,16,10,47,13.60
2016,06,16,10,48,13.60
2016,06,16,10,49,13.70
2016,06,16,10,50,13.70
2016,06,16,10,51,13.70
2016,06,16,10,52,13.70
2016,06,16,10,53,13.80
2016,06,16,10,54,13.80
2016,06,16,10,55,13.90
2016,06,16,10,56,14.00
2016,06,16,10,57,14.10
2016,06,16,10,58,14.10
2016,06,16,10,59,14.20
2016,06,16,11,00,14.40
2016,06,16,11,01,14.50
2016,06,16,11,02,14.70
2016,06,16,11,03,14.80
2016,06,16,11,04,14.90
2016,06,16,11,05,14.90
2016,06,16,11,06,14.90
2016,06,16,11,07,15.00
2016,06,16,11,08,15.00
2016,06,16,11,09,15.10
2016,06,16,11,10,15.00
2016,06,16,11,11,15.00
2016,06,16,11,12,15.00
2016,06,16,11,13,14.90
2016,06,16,11,14,14.90
2016,06,16,11,15,14.80
2016,06,16,11,16,14.80
2016,06,16,11,17,14.80
2016,06,16,11,18,14.70
2016,06,16,11,19,14.70
2016,06,16,11,20,14.60
2016,06,16,11,21,14.50
2016,06,16,11,22,14.40
2016,06,16,11,23,14.40
2016,06,16,11,24,14.40
2016,06,16,11,25,14.40
2016,06,16,11,26,14.40
2016,06,16,11,27,14.50
2016,06,16,11,28,14.50
2016,06,16,11,29,14.60
2016,06,16,11,30,14.60
2016,06,16,11,31,14.60
2016,06,16,11,32,14.60
2016,06,16,11,33,14.60
2016,06,16,11,34,14.60
2016,06,16,11,35,14.60
2016,06,16,11,36,14.60
2016,06,16,11,37,14.60
2016,06,16,11,38,14.60
2016,06,16,11,39,14.60
2016,06,16,11,40,14.60
2016,06,16,11,41,14.60
2016,06,16,11,42,14.60
2016,06,16,11,43,14.60
2016,06,16,11,44,14.60
2016,06,16,11,45,14.60
2016,06,16,11,46,14.60
2016,06,16,11,47,14.60
2016,06,16,11,48,14.60
2016,06,16,11,49,14.70
2016,06,16,11,50,14.70
2016,06,16,11,51,14.80
2016,06,16,11,52,14.90
2016,06,16,11,53,15.00
2016,06,16,11,54,15.10
2016,06,16,11,55,15.10
2016,06,16,11,56,15.20
2016,06,16,11,57,15.30
2016,06,16,11,58,15.50
2016,06,16,11,59,15.50
2016,06,16,12,00,15.60
2016,06,16,12,01,15.70
2016,06,16,12,02,15.80
2016,06,16,12,03,15.90
2016,06,16,12,04,15.90
2016,06,16,12,05,16.00
2016,06,16,12,06,16.10
2016,06,16,12,07,16.20
2016,06,16,12,08,16.10
2016,06,16,12,09,16.10
2016,06,16,12,10,16.10
2016,06,16,12,11,16.00
2016,06,16,12,12,15.90
2016,06,16,12,13,15.90
2016,06,16,12,14,15.90
2016,06,16,12,15,15.90
2016,06,16,12,16,15.90
2016,06,16,12,17,15.90
2016,06,16,12,18,15.80
2016,06,16,12,19,15.80
2016,06,16,12,20,15.90
2016,06,16,12,21,16.10
2016,06,16,12,22,16.20
2016,06,16,12,23,16.30
2016,06,16,12,24,16.30
2016,06,16,12,25,16.30
2016,06,16,12,26,16.30
2016,06,16,12,27,16.20
2016,06,16,12,28,16.20
2016,06,16,12,29,16.20
2016,06,16,12,30,16.30
2016,06,16,12,31,16.40
2016,06,16,12,32,16.40
2016,06,16,12,33,16.30
2016,06,16,12,34,16.30
2016,06,16,12,35,16.30
2016,06,16,12,36,16.30
2016,06,16,12,37,16.30
2016,06,16,12,38,16.40
2016,06,16,12,39,16.50
2016,06,16,12,40,16.50
2016,06,16,12,41,16.50
2016,06,16,12,42,16.40
2016,06,16,12,43,16.30
2016,06,16,12,44,16.30
2016,06,16,12,45,16.40
2016,06,16,12,46,16.50
2016,06,16,12,47,16.50
2016,06,16,12,48,16.60
2016,06,16,12,49,16.70
2016,06,16,12,50,16.60
2016,06,16,12,51,16.60
2016,06,16,12,52,16.60
2016,06,16,12,53,16.70
2016,06,16,12,54,16.70
2016,06,16,12,55,16.80
2016,06,16,12,56,16.90
2016,06,16,12,57,16.90
2016,06,16,12,58,16.90
2016,06,16,12,59,17.00
2016,06,16,13,00,17.10
2016,06,16,13,01,17.10
2016,06,16,13,02,17.20
2016,06,16,13,03,17.20
2016,06,16,13,04,17.30
2016,06,16,13,05,17.30
2016,06,16,13,06,17.30
2016,06,16,13,07,17.30
2016,06,16,13,08,17.30
2016,06,16,13,09,17.30
2016,06,16,13,10,17.30
2016,06,16,13,11,17.30
2016,06,16,13,12,17.30
2016,06,16,13,13,17.20
2016,06,16,13,14,17.20
2016,06,16,13,15,17.20
2016,06,16,13,16,17.30
2016,06,16,13,17,17.30
2016,06,16,13,18,17.30
2016,06,16,13,19,17.20
2016,06,16,13,20,17.10
2016,06,16,13,21,17.00
2016,06,16,13,22,16.90
2016,06,16,13,23,16.90
2016,06,16,13,24,16.90
2016,06,16,13,25,16.90
2016,06,16,13,26,16.90
2016,06,16,13,27,16.90
2016,06,16,13,28,16.90
2016,06,16,13,29,16.90
2016,06,16,13,30,16.90
2016,06,16,13,31,16.90
2016,06,16,13,32,16.90
2016,06,16,13,33,16.90
2016,06,16,13,34,16.90
2016,06,16,13,35,16.90
2016,06,16,13,36,16.90
2016,06,16,13,37,16.80
2016,06,16,13,38,16.90
2016,06,16,13,39,17.00
2016,06,16,13,40,17.00
2016,06,16,13,41,17.10
2016,06,16,13,42,17.10
2016,06,16,13,43,17.30
2016,06,16,13,44,17.50
2016,06,16,13,45,17.70
2016,06,16,13,46,17.90
2016,06,16,13,47,17.90
2016,06,16,13,48,18.10
2016,06,16,13,49,18.20
2016,06,16,13,50,18.30
2016,06,16,13,51,18.40
2016,06,16,13,52,18.40
2016,06,16,13,53,18.40
2016,06,16,13,54,18.40
2016,06,16,13,55,18.30
2016,06,16,13,56,18.30
2016,06,16,13,57,18.30
2016,06,16,13,58,18.30
2016,06,16,13,59,18.30
2016,06,16,14,00,18.30
2016,06,16,14,01,18.20
2016,06,16,14,02,18.00
2016,06,16,14,03,18.00
2016,06,16,14,04,18.10
2016,06,16,14,05,18.10
2016,06,16,14,06,18.10
2016,06,16,14,07,18.00
2016,06,16,14,08,17.90
2016,06,16,14,09,17.90
2016,06,16,14,10,17.70
2016,06,16,14,11,17.70
2016,06,16,14,12,17.70
2016,06,16,14,13,17.80
2016,06,16,14,14,17.80
2016,06,16,14,15,17.80
2016,06,16,14,16,17.80
2016,06,16,14,17,17.80
2016,06,16,14,18,17.80
2016,06,16,14,19,17.90
2016,06,16,14,20,17.80
2016,06,16,14,21,17.80
2016,06,16,14,22,17.80
2016,06,16,14,23,17.70
2016,06,16,14,24,17.70
2016,06,16,14,25,17.80
2016,06,16,14,26,17.90
2016,06,16,14,27,18.00
2016,06,16,14,28,18.10
2016,06,16,14,29,18.10
2016,06,16,14,30,18.10
2016,06,16,14,31,18.10
2016,06,16,14,32,18.20
2016,06,16,14,33,18.20
2016,06,16,14,34,18.00
2016,06,16,14,35,17.90
2016,06,16,14,36,17.80
2016,06,16,14,37,17.80
2016,06,16,14,38,17.70
2016,06,16,14,39,17.70
2016,06,16,14,40,17.60
2016,06,16,14,41,17.60
2016,06,16,14,42,17.60
2016,06,16,14,43,17.60
2016,06,16,14,44,17.60
2016,06,16,14,45,17.60
2016,06,16,14,46,17.70
2016,06,16,14,47,17.80
2016,06,16,14,48,17.90
2016,06,16,14,49,18.00
2016,06,16,14,50,18.10
2016,06,16,14,51,18.20
2016,06,16,14,52,18.30
2016,06,16,14,53,18.40
2016,06,16,14,54,18.40
2016,06,16,14,55,18.40
2016,06,16,14,56,18.40
2016,06,16,14,57,18.40
2016,06,16,14,58,18.20
2016,06,16,14,59,18.00
2016,06,16,15,00,18.00
2016,06,16,15,01,18.00
2016,06,16,15,02,18.10
2016,06,16,15,03,18.10
2016,06,16,15,04,18.20
2016,06,16,15,05,18.20
2016,06,16,15,06,18.30
2016,06,16,15,07,18.30
2016,06,16,15,08,18.40
2016,06,16,15,09,18.30
2016,06,16,15,10,18.10
2016,06,16,15,11,18.10
2016,06,16,15,12,18.10
2016,06,16,15,13,18.10
2016,06,16,15,14,18.20
2016,06,16,15,15,18.20
2016,06,16,15,16,18.20
2016,06,16,15,17,18.10
2016,06,16,15,18,18.20
2016,06,16,15,19,18.20
2016,06,16,15,20,18.30
2016,06,16,15,21,18.30
2016,06,16,15,22,18.30
2016,06,16,15,23,18.40
2016,06,16,15,24,18.50
2016,06,16,15,25,18.60
2016,06,16,15,26,18.60
2016,06,16,15,27,18.60
2016,06,16,15,28,18.70
2016,06,16,15,29,18.70
2016,06,16,15,30,18.80
2016,06,16,15,31,18.70
2016,06,16,15,32,18.60
2016,06,16,15,33,18.50
2016,06,16,15,34,18.30
2016,06,16,15,35,18.30
2016,06,16,15,36,18.30
2016,06,16,15,37,18.30
2016,06,16,15,38,18.30
2016,06,16,15,39,18.30
2016,06,16,15,40,18.30
2016,06,16,15,41,18.30
2016,06,16,15,42,18.20
2016,06,16,15,43,18.20
2016,06,16,15,44,18.10
2016,06,16,15,45,18.00
2016,06,16,15,46,17.90
2016,06,16,15,47,17.70
2016,06,16,15,48,17.70
2016,06,16,15,49,17.70
2016,06,16,15,50,17.70
2016,06,16,15,51,17.70
2016,06,16,15,52,17.70
2016,06,16,15,53,17.70
2016,06,16,15,54,17.80
2016,06,16,15,55,17.70
2016,06,16,15,56,17.70
2016,06,16,15,57,17.70
2016,06,16,15,58,17.80
2016,06,16,15,59,17.90
2016,06,16,16,00,17.90
2016,06,16,16,01,17.90
2016,06,16,16,02,17.90
2016,06,16,16,03,17.90
2016,06,16,16,04,17.90
2016,06,16,16,05,17.80
2016,06,16,16,06,17.80
2016,06,16,16,07,17.80
2016,06,16,16,08,17.80
2016,06,16,16,09,17.90
2016,06,16,16,10,18.00
2016,06,16,16,11,18.00
2016,06,16,16,12,18.00
2016,06,16,16,13,18.00
2016,06,16,16,14,18.00
2016,06,16,16,15,18.10
2016,06,16,16,16,18.10
2016,06,16,16,17,18.30
2016,06,16,16,18,18.30
2016,06,16,16,19,18.30
2016,06,16,16,20,18.20
2016,06,16,16,21,18.20
2016,06,16,16,22,18.20
2016,06,16,16,23,18.30
2016,06,16,16,24,18.40
2016,06,16,16,25,18.60
2016,06,16,16,26,18.80
2016,06,16,16,27,18.90
2016,06,16,16,28,18.90
2016,06,16,16,29,18.70
2016,06,16,16,30,18.40
2016,06,16,16,31,18.20
2016,06,16,16,32,18.10
2016,06,16,16,33,18.10
2016,06,16,16,34,18.10
2016,06,16,16,35,18.10
2016,06,16,16,36,18.20
2016,06,16,16,37,18.30
2016,06,16,16,38,18.40
2016,06,16,16,39,18.60
2016,06,16,16,40,18.60
2016,06,16,16,41,18.60
2016,06,16,16,42,18.50
2016,06,16,16,43,18.30
2016,06,16,16,44,18.20
2016,06,16,16,45,18.10
2016,06,16,16,46,18.00
2016,06,16,16,47,17.90
2016,06,16,16,48,17.80
2016,06,16,16,49,17.70
2016,06,16,16,50,17.80
2016,06,16,16,51,17.80
2016,06,16,16,52,17.70
2016,06,16,16,53,17.60
2016,06,16,16,54,17.60
2016,06,16,16,55,17.50
2016,06,16,16,56,17.40
2016,06,16,16,57,17.30
2016,06,16,16,58,17.20
2016,06,16,16,59,17.20
2016,06,16,17,00,17.20
2016,06,16,17,01,17.20
2016,06,16,17,02,17.20
2016,06,16,17,03,17.10
2016,06,16,17,04,17.10
2016,06,16,17,05,17.00
2016,06,16,17,06,16.90
2016,06,16,17,07,16.90
2016,06,16,17,08,16.90
2016,06,16,17,09,16.90
2016,06,16,17,10,16.90
2016,06,16,17,11,16.90
2016,06,16,17,12,16.90
2016,06,16,17,13,17.00
2016,06,16,17,14,17.00
2016,06,16,17,15,17.00
2016,06,16,17,16,17.00
2016,06,16,17,17,17.00
2016,06,16,17,18,17.00
2016,06,16,17,19,17.00
2016,06,16,17,20,17.00
2016,06,16,17,21,17.00
2016,06,16,17,22,16.90
2016,06,16,17,23,16.80
2016,06,16,17,24,16.80
2016,06,16,17,25,16.80
2016,06,16,17,26,16.80
2016,06,16,17,27,16.90
2016,06,16,17,28,16.90
2016,06,16,17,29,16.90
2016,06,16,17,30,17.00
2016,06,16,17,31,17.10
2016,06,16,17,32,17.10
2016,06,16,17,33,17.10
2016,06,16,17,34,17.10
2016,06,16,17,35,17.10
2016,06,16,17,36,17.10
2016,06,16,17,37,17.10
2016,06,16,17,38,17.10
2016,06,16,17,39,17.20